Weather in Agde

France     43°18′43″N   3°28′30″E
temp.,
°C
wind,
m/s
gust,
m/s
humid.,
%
clouds,
%
prec.,
mm/h
press.,
hPa
HPBL,
m
12 april, mon
mon1223:00+11nw101564100 0.6 10191138
02:00+11nw101464100 0.6 10211013
05:00+10nw101464100 0.0 1022901
08:00+8wnw1215680 0.0 10231096
11:00+10nw1113585 0.0 10241459
14:00+13wnw1215475 0.0 10232009
17:00+15nnw9123926 0.0 1022574
20:00+13n1113451 0.0 10241144
13 april, tue
tue1323:00+11nw913460 0.0 10261052
02:00+10nw913500 0.0 1026776
05:00+9nw911500 0.0 1026714
08:00+8nw812530 0.0 1026569
11:00+11nnw910450 0.0 10261037
14:00+15nw684257 0.0 1024362
17:00+16nnw464472 0.0 1022242
20:00+15nne335099 0.0 102244
14 april, wed
wed1423:00+13nne4551100 0.0 1023282
02:00+12ne4349100 0.0 1023286
05:00+10nne56526 0.0 1023371
08:00+9nne56536 0.0 1023358
11:00+10ne4548100 0.0 1024558
14:00+12ene454097 0.0 1022727
17:00+13se334533 0.0 1020320
20:00+13ssw33526 0.0 1020229
15 april, thu
thu1523:00+12ne125499 0.0 1021169
02:00+12ene694988 0.0 1020688
05:00+10n45585 0.0 1020230
08:00+10nne565411 0.0 1020415
11:00+11ne66496 0.0 1020610
14:00+13e564524 0.0 1019827
17:00+13se454765 0.0 1017370
20:00+13ssw435176 0.0 1017250
16 april, fri
fri1623:00+13nw0147100 0.0 1018181
02:00+12ene565595 0.0 1018731
05:00+11nne5650100 0.0 1017458
08:00+10nne45520 0.0 1017398
11:00+11ne45505 0.0 1017557
14:00+12ese33551 0.0 1016428
17:00+12sse44635 0.0 1014292
20:00+13s776759 0.0 1013401